Bradshaw AFB, HI

5:36 PM HST on April 23, 2018 (GMT -1000)
Bradshaw Army Air Field

Weather History for PHSF - January, 2014

Change the Weather History Date:

Monday, January 6, 2014

  Actual Average Record
Temperature  
Mean Temperature 48 °F -  
Max Temperature 62 °F 63 °F 71 °F (2015)
Min Temperature 34 °F 42 °F 32 °F (2003)
Degree Days  
Heating Degree Days 17    
Moisture  
Dew Point 26 °F    
Average Humidity 48    
Maximum Humidity 93    
Minimum Humidity 13    
Precipitation  
Precipitation 0.00 in - - ()
Sea Level Pressure  
Sea Level Pressure 30.21 in    
Wind  
Wind Speed 8 mph (ESE)    
Max Wind Speed 21 mph    
Max Gust Speed 50 mph    
Visibility 12 miles    
Events      
Averages and records for this station are not official NWS values.
T = Trace of Precipitation, MM = Missing Value Source: NWS Daily Summary

Daily Weather History Graph

Daily Weather History Graph

Search for Another Location

Airport or City:

Astronomy

Jan. 06, 2014 Rise Set
Actual Time 6:58 AM HST 5:58 PM HST
Civil Twilight 6:34 AM HST 6:21 PM HST
Nautical Twilight 6:07 AM HST 6:49 PM HST
Astronomical Twilight 5:40 AM HST 7:16 PM HST
Moon 11:11 AM HST (1/6) 11:46 PM HST (1/6)
Length of Visible Light 11h 47m
Length of Day
10h 59m
Waxing Crescent, 37% of the Moon is Illuminated
Jan 6
Waxing Crescent
Jan 7
First Quarter
Jan 15
Full
Jan 23
Last Quarter
Jan 30
New

Hourly Weather History & Observations

Time (HST) Temp. Windchill Dew Point Humidity Pressure Visibility Wind Dir Wind Speed Gust Speed Precip Events Conditions
12:56 AM 38.7 °F 36.3 °F 34.5 °F 85% 30.21 in 12.0 mi NNE 3.5 mph - N/A   Clear
1:56 AM 35.6 °F - 33.8 °F 93% 30.19 in 12.0 mi NNE 2.3 mph - N/A   Clear
2:56 AM 34.5 °F - 31.6 °F 89% 30.19 in 12.0 mi North 1.2 mph - N/A   Clear
3:56 AM 37.0 °F 32.4 °F 30.9 °F 79% 30.19 in 12.0 mi ESE 5.8 mph - N/A   Clear
4:56 AM 34.9 °F 29.9 °F 32.2 °F 90% 30.21 in 12.0 mi East 5.8 mph - N/A   Clear
5:56 AM 36.0 °F 33.3 °F 32.9 °F 89% 30.22 in 12.0 mi ESE 3.5 mph - N/A   Clear
6:56 AM 35.1 °F 30.1 °F 29.5 °F 80% 30.23 in 12.0 mi ESE 5.8 mph - N/A   Clear
7:56 AM 41.9 °F - 33.4 °F 72% 30.25 in 12.0 mi ESE 1.2 mph - N/A   Clear
8:56 AM 47.5 °F - 32.9 °F 57% 30.27 in 12.0 mi North 3.5 mph - N/A   Clear
9:56 AM 52.3 °F - 29.7 °F 42% 30.27 in 12.0 mi SSW 3.5 mph - N/A   Clear
10:56 AM 55.2 °F - 28.9 °F 37% 30.26 in 12.0 mi WSW 5.8 mph - N/A   Clear
11:56 AM 57.7 °F - 27.7 °F 32% 30.23 in 12.0 mi WSW 9.2 mph 15.0 mph N/A   Clear
12:42 PM 60.8 °F - 26.6 °F 27% 30.18 in 12.0 mi East 16.1 mph 29.9 mph N/A   Clear
12:48 PM 62.6 °F - 26.6 °F 26% 30.18 in 12.0 mi East 15.0 mph 25.3 mph N/A   Clear
12:56 PM 61.3 °F - 25.3 °F 25% 30.18 in 12.0 mi ESE 9.2 mph 23.0 mph N/A   Clear
1:41 PM 62.6 °F - 15.8 °F 16% 30.15 in 12.0 mi WNW 19.6 mph 28.8 mph N/A   Clear
1:56 PM 62.6 °F - 14.2 °F 15% 30.14 in 12.0 mi West 20.7 mph 29.9 mph N/A   Clear
2:00 PM 62.6 °F - 14.0 °F 15% 30.14 in 9.0 mi WNW 19.6 mph 49.5 mph N/A   Clear
2:02 PM 62.6 °F - 10.4 °F 13% 30.14 in 8.0 mi West 18.4 mph 49.5 mph N/A   Clear
2:56 PM 58.6 °F - 11.3 °F 15% 30.14 in 5.0 mi WSW 17.3 mph 35.7 mph N/A   Clear
3:56 PM 58.1 °F - 23.0 °F 26% 30.17 in 12.0 mi WSW 11.5 mph 32.2 mph N/A   Clear
4:54 PM 57.2 °F - 19.4 °F 23% 30.18 in 12.0 mi East 17.3 mph 24.2 mph N/A   Clear
4:56 PM 56.7 °F - 16.9 °F 21% 30.18 in 12.0 mi ESE 18.4 mph 26.5 mph N/A   Clear
5:30 PM 55.4 °F - 28.4 °F 36% 30.20 in 12.0 mi South 16.1 mph 25.3 mph N/A   Clear
5:56 PM 50.9 °F - 20.8 °F 31% 30.23 in 12.0 mi South 10.4 mph 15.0 mph N/A   Clear
6:56 PM 45.1 °F 42.8 °F 19.4 °F 36% 30.26 in 12.0 mi East 4.6 mph - N/A   Clear
7:56 PM 43.5 °F 41.9 °F 16.9 °F 34% 30.27 in 12.0 mi ESE 3.5 mph - N/A   Clear
8:56 PM 43.0 °F 38.8 °F 31.1 °F 63% 30.28 in 12.0 mi SE 6.9 mph - N/A   Clear
9:56 PM 43.0 °F 37.7 °F 35.8 °F 76% 30.27 in 12.0 mi ESE 9.2 mph - N/A   Clear
10:56 PM 42.3 °F 37.3 °F 34.9 °F 75% 30.27 in 12.0 mi ESE 8.1 mph - N/A   Clear
11:56 PM 41.2 °F 37.3 °F 26.4 °F 56% 30.27 in 12.0 mi East 5.8 mph - N/A   Clear